CAPE
425 37 36 42 25 12 39 71 76 44 123 101 2 0 77 62 0 124 534 747 869 1314 1575 1760 2101 1789 1700 1701 1811 1851 1882 1989 2288 2545 2466 2187 2479 2383 2421 2398 2446 2432 1684 1559 1479 1408 1374 1165 1207
7 10 0 6 0 12 52 91 27 61 128 122 73 98 37 209 350 574 659 1042 1140 1065 1092 1183 1468 1300 1071 1041 1051 1061 1083 1292 1512 1615 1526 1780 2076 2090 1945 1893 1646 1391 1023 818 932 1196 942 764 657
22 19 1 7 15 10 65 60 56 96 78 62 101 204 274 152 329 479 761 982 1127 969 939 850 1091 1161 761 687 670 968 1106 1171 934 700 870 897 813 791 1006 1179 1239 1215 1175 1154 1105 1178 1441 1075 748
57 3 2 13 21 12 76 62 66 78 98 186 260 275 331 214 380 642 802 1023 968 877 827 1036 1013 935 599 199 201 429 251 249 251 96 366 516 574 648 702 721 717 713 733 723 1126 1386 1383 1411 1818
0 0 0 1 5 39 70 124 64 99 106 139 108 198 188 129 450 553 530 673 642 650 747 554 643 252 142 17 19 169 204 24 9 0 0 303 517 491 536 521 144 51 80 460 836 916 1038 1283 1752
0 0 0 0 6 19 43 27 95 192 176 147 57 108 80 320 309 70 103 316 434 493 483 6 212 350 255 179 165 106 104 0 0 0 0 0 0 0 308 127 0 0 8 3 58 335 647 1285 1404
0 0 0 8 2 0 62 114 150 211 184 193 113 83 66 116 234 36 2 3 211 263 17 0 0 0 175 337 374 241 82 0 0 0 0 0 0 0 0 0 0 0 21 26 0 80 170 550 1096
0 0 1 9 27 13 162 186 273 301 310 198 243 129 79 1 14 23 1 0 4 0 0 0 0 0 0 0 379 102 0 0 0 0 0 0 0 0 0 0 0 0 0 0 0 226 252 603 1052
0 10 1 28 24 47 137 451 420 337 218 238 314 142 65 1 5 59 36 0 0 0 0 0 0 0 0 0 0 0 0 0 0 0 0 0 0 0 0 0 0 0 0 0 0 0 0 0 0
7 17 0 0 92 188 456 414 448 399 279 355 77 65 27 4 5 0 33 10 0 0 0 0 0 0 0 0 0 0 0 0 0 0 0 0 0 0 0 0 0 0 0 0 0 0 0 0 0
6 11 0 94 306 600 581 513 485 435 373 250 108 93 74 66 10 0 0 0 0 0 0 0 0 0 0 0 0 0 0 0 0 0 0 0 0 0 0 0 0 0 0 0 0 0 0 0 0
3 0 2 6 362 462 408 347 310 261 305 222 133 101 98 29 14 0 0 0 0 0 0 0 0 0 0 0 0 0 0 0 0 0 0 0 0 0 0 0 0 0 0 0 0 0 0 0 0
8 30 1 2 303 377 288 164 376 454 322 237 170 118 168 74 30 0 0 0 0 0 0 0 0 0 0 0 0 0 0 0 0 0 0 0 0 0 0 0 0 0 0 0 0 0 0 0 0
7 12 22 289 389 365 330 326 355 448 378 327 315 244 209 24 1 0 0 0 0 0 0 0 0 0 0 0 0 0 0 0 0 0 0 0 0 0 0 0 0 0 0 0 0 0 0 0 0
0 2 31 109 274 316 300 294 212 261 283 232 257 339 220 218 0 0 0 0 0 0 0 0 0 0 0 0 0 0 0 0 0 0 0 0 0 0 0 0 0 0 0 0 0 0 0 0 0
16 66 69 86 143 161 132 204 223 218 195 115 18 9 200 5 0 0 0 0 0 0 0 0 0 0 0 0 0 0 0 0 0 0 0 0 0 0 0 0 0 0 0 0 0 0 0 0 0
23 26 72 39 73 98 56 143 268 247 241 131 55 30 46 44 38 16 0 0 0 0 0 0 0 0 0 0 0 0 0 0 0 0 0 0 0 0 0 0 0 0 0 0 0 0 0 0 0
40 23 16 41 58 34 9 0 109 254 252 196 102 70 54 78 88 22 0 2 58 1 2 0 0 0 0 0 0 0 0 0 0 0 0 0 0 0 0 0 0 0 0 0 0 0 0 0 0
26 5 0 4 6 0 4 3 0 114 198 136 142 81 100 52 49 66 25 14 64 30 17 4 16 0 0 0 0 0 0 0 0 0 0 0 0 0 0 0 0 0 0 0 0 0 0 0 0
17 0 0 0 0 7 1 17 8 32 135 72 46 100 93 98 60 73 90 89 76 72 84 150 105 1 0 0 0 0 0 0 0 0 0 0 0 0 0 0 0 0 0 0 0 0 0 0 0
0 0 1 0 8 3 11 8 53 49 140 122 187 72 59 91 160 205 202 172 104 114 89 130 150 3 0 0 0 0 0 0 0 0 0 0 0 0 0 0 0 0 0 0 0 0 0 0 0
0 0 0 0 15 17 20 10 93 62 212 223 343 52 41 70 110 120 150 170 119 72 165 116 125 0 0 0 0 0 0 0 0 0 0 0 0 0 0 0 0 0 0 0 0 0 0 0 0
0 0 0 0 1 12 7 80 118 303 227 275 230 93 79 57 112 105 97 190 133 92 122 137 3 0 0 0 0 0 0 0 0 0 0 0 0 0 0 0 0 0 0 0 0 0 0 0 0
0 0 0 0 0 0 0 12 258 291 325 367 269 232 146 140 112 101 65 90 259 122 203 89 0 0 0 0 0 0 0 0 0 0 0 0 0 0 0 0 0 0 0 0 0 0 0 0 0
0 0 0 0 0 0 0 24 85 291 169 297 135 74 64 138 86 99 101 192 209 130 160 0 0 0 0 0 0 0 0 0 0 0 0 0 0 0 0 0 0 0 0 0 0 0 0 0 0
0 0 0 0 0 0 6 12 41 74 132 143 140 82 42 26 11 130 112 199 171 150 21 0 0 0 0 0 0 0 0 0 0 0 0 0 0 0 0 0 0 0 0 0 0 0 0 0 0
0 0 0 0 0 0 11 200 190 89 106 78 48 43 95 21 26 6 77 115 152 145 0 0 0 0 0 0 0 0 0 0 0 0 0 0 0 0 0 0 0 0 0 0 0 0 0 0 0
0 0 0 0 0 0 0 179 85 92 50 175 184 115 209 30 31 9 79 127 90 17 0 0 0 0 0 0 0 0 0 0 0 0 0 0 0 0 0 0 0 0 0 0 0 7 0 0 0
0 0 0 0 0 0 0 15 109 157 55 177 240 300 257 177 150 109 111 9 0 0 0 0 0 0 0 0 0 0 0 0 0 0 0 0 0 0 0 0 0 0 0 0 0 0 0 0 0
0 0 0 0 0 0 0 0 119 177 200 171 178 185 256 226 197 235 0 0 0 5 0 0 0 0 0 0 0 0 0 0 0 0 0 0 0 0 0 0 1 0 0 0 0 0 0 0 4
CIN
-624 -177 -274 -189 -20 -45 -134 -71 -56 -119 -190 -184 -182 0 -185 -168 0 -66 -14 -41 -30 -11 0 0 0 0 0 -3 -2 -1 -1 -1 0 0 0 -2 -1 -1 -1 -2 -2 -1 -3 -3 -7 -15 -30 -44 -40
-120 -53 0 -213 0 -82 -84 -153 -51 -85 -159 -175 -186 -196 -227 -123 -96 -20 -39 -18 -38 -28 -20 -16 -6 -18 -32 -36 -38 -34 -30 -10 -1 0 -4 -3 0 0 -1 -3 -6 -13 -39 -53 -50 -29 -53 -87 -104
-117 -124 -63 -173 -367 -20 -75 -127 -51 -103 -127 -124 -157 -143 -135 -82 -35 -47 -77 -68 -43 -38 -44 -51 -32 -25 -56 -59 -55 -27 -13 -6 -22 -52 -41 -37 -45 -47 -37 -23 -20 -21 -20 -21 -28 -16 -18 -63 -100
-84 -71 -33 -53 -13 -9 -49 -73 -108 -168 -137 -148 -135 -123 -107 -50 -58 -64 -71 -81 -71 -42 -52 -27 -32 -38 -66 -110 -97 -56 -68 -68 -71 -131 -62 -40 -40 -43 -39 -48 -50 -48 -45 -41 -23 -6 -6 -10 -18
0 0 0 -23 -26 -186 -63 -75 -140 -164 -182 -218 -218 -153 -197 -175 -69 -75 -103 -98 -141 -91 -58 -82 -71 -108 -132 -32 -105 -69 -54 -112 -57 0 0 -39 -11 -21 -26 -37 -99 -33 -137 -79 -19 -19 -19 -20 -6
0 0 0 0 -9 -19 -111 -101 -132 -151 -211 -207 -209 -205 -223 -147 -121 -130 -212 -162 -159 -129 -103 -123 -122 -91 -91 -91 -83 -61 -58 0 0 0 0 0 0 0 -53 -51 0 0 -20 -19 -138 -92 -44 0 -2
-1 0 0 -39 -2 0 -8 -40 -66 -216 -217 -152 -196 -202 -174 -186 -79 -145 -45 -61 -190 -164 -98 0 0 0 -65 -57 -48 -55 -131 0 0 0 0 0 0 0 0 0 0 0 -43 -81 0 -118 -69 -16 0
0 0 -34 -28 -25 -40 -46 -62 -151 -188 -150 -168 -57 -160 -192 -31 -189 -148 -52 0 -290 0 0 0 0 0 0 -12 -5 -47 0 0 0 0 0 0 0 0 0 0 0 0 0 0 0 -89 -88 -3 0
0 -9 -13 -73 -15 -88 -71 -90 -129 -148 -185 -80 -100 -206 -199 -67 -199 -157 -133 0 0 0 0 0 0 0 0 0 0 0 0 0 0 0 0 0 0 0 0 0 0 0 0 0 0 0 0 0 0
-22 -9 -23 0 -33 -130 -88 -118 -131 -179 -180 -87 -259 -201 -224 -149 -192 0 -184 -120 0 0 0 0 0 0 0 0 0 0 0 0 0 0 0 0 0 0 0 0 0 0 0 0 0 0 0 0 0
-43 -23 0 -46 -34 -91 -96 -92 -78 -67 -95 -77 -255 -240 -205 -171 -144 0 0 0 0 0 0 0 0 0 0 0 0 0 0 0 0 0 0 0 0 0 0 0 0 0 0 0 0 0 0 0 0
-47 0 -21 -26 -44 -84 -125 -152 -205 -149 -205 -214 -215 -214 -183 -198 -222 0 0 0 0 0 0 0 0 0 0 0 0 0 0 0 0 0 0 0 0 0 0 0 0 0 0 0 0 0 0 0 0
-6 -21 -4 -28 -41 -73 -63 -66 -138 -97 -212 -197 -188 -172 -103 -161 -175 0 0 0 0 0 0 0 0 0 0 0 0 0 0 0 0 0 0 0 0 0 0 0 0 0 0 0 0 0 0 0 0
-7 -10 -36 -11 -41 -39 -83 -98 -116 -144 -198 -153 -169 -143 -96 -116 -1 0 0 0 0 0 0 0 0 0 0 0 0 0 0 0 0 0 0 0 0 0 0 0 0 0 0 0 0 0 0 0 0
0 -44 -58 -44 -65 -72 -101 -125 -125 -171 -177 -141 -121 -112 -79 -24 0 0 0 0 0 0 0 0 0 0 0 0 0 0 0 0 0 0 0 0 0 0 0 0 0 0 0 0 0 0 0 0 0
-20 -85 -82 -40 -19 -60 -53 -129 -106 -79 -48 -116 -142 -38 -104 -17 0 0 0 0 0 0 0 0 0 0 0 0 0 0 0 0 0 0 0 0 0 0 0 0 0 0 0 0 0 0 0 0 0
-113 -64 -36 -43 -23 -31 -41 -83 -96 -86 -50 -35 -155 -145 -165 -159 -134 -104 0 0 0 0 0 0 0 0 0 0 0 0 0 0 0 0 0 0 0 0 0 0 0 0 0 0 0 0 0 0 0
-53 -30 -35 -18 -28 -24 -101 0 -129 -80 -78 -61 -50 -39 -24 -164 -157 -129 0 -10 -6 -9 -5 0 0 0 0 0 0 0 0 0 0 0 0 0 0 0 0 0 0 0 0 0 0 0 0 0 0
-34 -42 0 -28 -129 -41 -212 -154 0 -141 -60 -66 -47 -43 -26 -12 -110 -76 -59 -42 -29 -13 -10 -12 -8 0 0 0 0 0 0 0 0 0 0 0 0 0 0 0 0 0 0 0 0 0 0 0 0
-46 0 0 0 0 -24 -29 -70 -7 -51 -122 -86 -65 -112 -92 -65 -62 -66 -26 -14 -12 -3 -6 -1 -2 -5 0 0 0 0 0 0 0 0 0 0 0 0 0 0 0 0 0 0 0 0 0 0 0
0 0 -88 0 -116 -107 -243 -20 -55 -86 -332 -133 -72 -85 -123 -71 -66 -58 -30 -13 -7 -16 -13 0 0 -3 0 0 0 0 0 0 0 0 0 0 0 0 0 0 0 0 0 0 0 0 0 0 0
0 0 0 0 -165 -83 -192 -65 -41 -48 -241 -164 -61 -95 -121 -65 -60 -70 -30 -11 -10 -29 -12 -3 -3 0 0 0 0 0 0 0 0 0 0 0 0 0 0 0 0 0 0 0 0 0 0 0 0
0 0 0 0 -6 -79 -94 -85 -68 -98 -238 -123 -23 -28 -11 -28 -84 -60 -34 -16 -13 -27 -13 -4 -18 0 0 0 0 0 0 0 0 0 0 0 0 0 0 0 0 0 0 0 0 0 0 0 0
0 0 0 0 0 0 0 -42 -144 -144 -144 -70 -68 -53 -16 -28 -69 -72 -52 -32 -19 -33 -10 -4 0 0 0 0 0 0 0 0 0 0 0 0 0 0 0 0 0 0 0 0 0 0 0 0 0
0 0 0 0 0 0 0 -88 -89 -93 -30 -193 -208 -139 -55 -36 -101 -74 -38 -37 -36 -29 -9 0 0 0 0 0 0 0 0 0 0 0 0 0 0 0 0 0 0 0 0 0 0 0 0 0 0
0 0 0 0 0 0 -58 -59 -138 -140 -441 -411 -258 -469 -189 -143 -235 -78 -31 -3 -24 -10 -7 0 0 0 0 0 0 0 0 0 0 0 0 0 0 0 0 0 0 0 0 0 0 0 0 0 0
0 0 0 0 0 0 -74 -178 -339 -120 -140 -484 -441 -328 -84 -294 -55 -99 0 -7 -9 -9 0 0 0 0 0 0 0 0 0 0 0 0 0 0 0 0 0 0 0 0 0 0 0 0 0 0 0
0 0 0 0 0 0 0 -205 -94 -220 -84 -470 -520 -349 -96 -79 -89 -25 -1 -4 -6 -9 0 0 0 0 0 0 0 0 0 0 0 0 0 0 0 0 0 0 0 0 0 0 0 -15 0 0 0
0 0 0 0 0 0 0 -63 -78 -74 -335 -423 -362 -199 -108 -83 -90 -9 -6 -7 -1 0 0 0 0 0 0 0 0 0 0 0 0 0 0 0 0 0 0 0 0 0 0 0 0 0 0 0 0
0 0 0 0 0 0 0 0 -70 -96 -90 -369 -375 -267 -149 -114 -50 -1 -1 0 0 -1 0 0 0 0 0 0 0 0 0 0 0 0 0 0 0 0 0 0 -15 0 0 0 0 0 0 0 -39
Wind_Speed
9 nan nan nan nan nan nan nan nan nan 17 22 nan nan nan nan nan 15 12 16 15 11 9 12 14 12 12 13 13 14 15 17 20 21 21 23 24 26 28 30 31 33 33 34 35 38 39 37 36
nan nan nan nan nan nan nan nan nan nan 27 21 nan nan nan 15 10 16 11 16 16 16 15 15 18 17 18 18 20 21 22 23 25 25 26 28 30 30 30 29 31 30 30 30 33 33 35 34 35
nan nan nan nan nan nan nan nan nan nan nan nan 4 5 2 10 6 12 15 15 12 11 13 17 23 25 28 27 27 28 29 30 29 29 30 32 33 33 33 34 34 35 33 32 30 30 32 28 28
nan nan nan nan nan nan nan nan nan nan nan 5 7 5 4 9 4 14 17 16 13 11 12 17 21 25 29 32 31 32 31 31 30 nan 28 30 31 31 33 34 35 35 35 34 34 32 29 28 30
nan nan nan nan nan nan nan 33 nan nan 7 9 0 3 3 3 19 24 19 17 20 15 15 18 26 30 31 nan nan 32 30 nan nan nan nan 23 24 26 28 33 35 nan nan 36 36 32 31 34 29
nan nan nan nan nan nan nan nan nan 11 13 9 nan 7 nan 20 22 nan 20 21 24 22 19 nan 30 34 36 36 35 32 31 nan nan nan nan nan nan nan 22 24 nan nan nan nan nan 35 35 32 29
nan nan nan nan nan nan nan 33 26 13 14 7 11 nan nan 14 21 nan nan nan 21 20 nan nan nan nan 37 35 31 30 nan nan nan nan nan nan nan nan nan nan nan nan nan nan nan nan 25 28 29
nan nan nan nan nan nan 23 26 23 20 11 14 20 15 nan nan nan nan nan nan nan nan nan nan nan nan nan nan 33 32 nan nan nan nan nan nan nan nan nan nan nan nan nan nan nan 38 36 28 24
nan nan nan nan nan nan 19 15 14 13 19 12 8 20 nan nan nan nan nan nan nan nan nan nan nan nan nan nan nan nan nan nan nan nan nan nan nan nan nan nan nan nan nan nan nan nan nan nan nan
nan nan nan nan nan 25 28 26 20 13 9 10 nan nan nan nan nan nan nan nan nan nan nan nan nan nan nan nan nan nan nan nan nan nan nan nan nan nan nan nan nan nan nan nan nan nan nan nan nan
nan nan nan nan 13 23 23 13 14 24 15 25 29 nan nan nan nan nan nan nan nan nan nan nan nan nan nan nan nan nan nan nan nan nan nan nan nan nan nan nan nan nan nan nan nan nan nan nan nan
nan nan nan nan 5 11 17 13 15 11 19 26 27 29 nan nan nan nan nan nan nan nan nan nan nan nan nan nan nan nan nan nan nan nan nan nan nan nan nan nan nan nan nan nan nan nan nan nan nan
nan nan nan nan 12 15 15 12 12 11 24 27 28 29 30 nan nan nan nan nan nan nan nan nan nan nan nan nan nan nan nan nan nan nan nan nan nan nan nan nan nan nan nan nan nan nan nan nan nan
nan nan nan 14 13 18 25 20 10 13 24 28 30 32 27 nan nan nan nan nan nan nan nan nan nan nan nan nan nan nan nan nan nan nan nan nan nan nan nan nan nan nan nan nan nan nan nan nan nan
nan nan nan 19 15 16 17 11 18 23 24 24 24 30 36 36 nan nan nan nan nan nan nan nan nan nan nan nan nan nan nan nan nan nan nan nan nan nan nan nan nan nan nan nan nan nan nan nan nan
nan nan nan nan 18 8 7 11 12 23 26 22 nan nan 35 nan nan nan nan nan nan nan nan nan nan nan nan nan nan nan nan nan nan nan nan nan nan nan nan nan nan nan nan nan nan nan nan nan nan
nan nan nan nan nan nan nan 7 16 17 23 24 nan nan nan nan nan nan nan nan nan nan nan nan nan nan nan nan nan nan nan nan nan nan nan nan nan nan nan nan nan nan nan nan nan nan nan nan nan
nan nan nan nan nan nan nan nan 4 9 22 23 28 nan nan nan nan nan nan nan nan nan nan nan nan nan nan nan nan nan nan nan nan nan nan nan nan nan nan nan nan nan nan nan nan nan nan nan nan
nan nan nan nan nan nan nan nan nan 14 15 17 24 nan 30 nan nan nan nan nan nan nan nan nan nan nan nan nan nan nan nan nan nan nan nan nan nan nan nan nan nan nan nan nan nan nan nan nan nan
nan nan nan nan nan nan nan nan nan nan 29 nan nan 35 nan nan nan nan nan nan nan nan nan 32 33 nan nan nan nan nan nan nan nan nan nan nan nan nan nan nan nan nan nan nan nan nan nan nan nan
nan nan nan nan nan nan nan nan nan nan 35 38 36 nan nan nan 42 42 37 33 33 35 nan 33 36 nan nan nan nan nan nan nan nan nan nan nan nan nan nan nan nan nan nan nan nan nan nan nan nan
nan nan nan nan nan nan nan nan nan nan 33 37 41 nan nan nan 36 38 35 36 35 nan 36 36 37 nan nan nan nan nan nan nan nan nan nan nan nan nan nan nan nan nan nan nan nan nan nan nan nan
nan nan nan nan nan nan nan nan 21 33 31 35 26 nan nan nan 31 41 nan 34 35 nan 36 36 nan nan nan nan nan nan nan nan nan nan nan nan nan nan nan nan nan nan nan nan nan nan nan nan nan
nan nan nan nan nan nan nan nan 25 24 29 36 50 54 33 27 23 32 nan nan 31 31 35 nan nan nan nan nan nan nan nan nan nan nan nan nan nan nan nan nan nan nan nan nan nan nan nan nan nan
nan nan nan nan nan nan nan nan nan 26 36 41 58 nan nan 19 nan nan 29 28 30 32 33 nan nan nan nan nan nan nan nan nan nan nan nan nan nan nan nan nan nan nan nan nan nan nan nan nan nan
nan nan nan nan nan nan nan nan nan nan 29 39 41 nan nan nan nan 31 29 28 34 34 nan nan nan nan nan nan nan nan nan nan nan nan nan nan nan nan nan nan nan nan nan nan nan nan nan nan nan
nan nan nan nan nan nan nan 21 19 nan 15 nan nan nan nan nan nan nan nan 28 34 36 nan nan nan nan nan nan nan nan nan nan nan nan nan nan nan nan nan nan nan nan nan nan nan nan nan nan nan
nan nan nan nan nan nan nan 26 nan nan nan 24 35 48 46 nan nan nan nan 31 nan nan nan nan nan nan nan nan nan nan nan nan nan nan nan nan nan nan nan nan nan nan nan nan nan nan nan nan nan
nan nan nan nan nan nan nan nan 22 27 nan 26 35 47 47 52 43 34 32 nan nan nan nan nan nan nan nan nan nan nan nan nan nan nan nan nan nan nan nan nan nan nan nan nan nan nan nan nan nan
nan nan nan nan nan nan nan nan 27 32 40 35 39 39 50 48 41 35 nan nan nan nan nan nan nan nan nan nan nan nan nan nan nan nan nan nan nan nan nan nan nan nan nan nan nan nan nan nan nan
Wind_Direction
108 nan nan nan nan nan nan nan nan nan 294 271 nan nan nan nan nan 334 356 321 335 336 356 325 297 284 276 276 279 277 272 267 266 269 272 277 279 278 277 275 272 273 269 267 272 273 270 266 262
nan nan nan nan nan nan nan nan nan nan 311 295 nan nan nan 275 291 337 342 346 345 344 2 341 308 295 286 290 294 297 295 289 282 277 273 269 269 268 269 270 269 269 272 276 274 278 278 279 276
nan nan nan nan nan nan nan nan nan nan nan nan 230 196 343 299 319 33 354 349 343 358 351 322 306 300 292 285 288 290 289 281 274 272 277 278 278 278 273 270 266 264 262 261 267 269 275 270 281
nan nan nan nan nan nan nan nan nan nan nan 305 293 202 116 275 328 356 347 328 328 345 342 317 306 293 285 283 284 284 280 275 269 nan 264 271 273 273 275 272 268 265 265 263 261 261 259 260 266
nan nan nan nan nan nan nan 21 nan nan 10 303 155 3 87 282 335 334 331 333 322 329 329 324 314 309 299 nan nan 292 287 nan nan nan nan 274 272 271 282 279 275 nan nan 269 267 261 257 251 262
nan nan nan nan nan nan nan nan nan 336 308 291 nan 308 nan 332 336 nan 333 342 333 331 338 nan 320 314 310 305 300 294 286 nan nan nan nan nan nan nan 275 281 nan nan nan nan nan 264 261 261 258
nan nan nan nan nan nan nan 31 34 331 322 16 357 nan nan 355 348 nan nan nan 336 336 nan nan nan nan 316 310 303 293 nan nan nan nan nan nan nan nan nan nan nan nan nan nan nan nan 268 265 262
nan nan nan nan nan nan 38 25 21 346 343 334 334 351 nan nan nan nan nan nan nan nan nan nan nan nan nan nan 307 302 nan nan nan nan nan nan nan nan nan nan nan nan nan nan nan 253 247 270 262
nan nan nan nan nan nan 23 20 19 8 337 18 29 333 nan nan nan nan nan nan nan nan nan nan nan nan nan nan nan nan nan nan nan nan nan nan nan nan nan nan nan nan nan nan nan nan nan nan nan
nan nan nan nan nan 12 1 339 347 337 329 304 nan nan nan nan nan nan nan nan nan nan nan nan nan nan nan nan nan nan nan nan nan nan nan nan nan nan nan nan nan nan nan nan nan nan nan nan nan
nan nan nan nan 70 356 350 338 339 319 342 340 342 nan nan nan nan nan nan nan nan nan nan nan nan nan nan nan nan nan nan nan nan nan nan nan nan nan nan nan nan nan nan nan nan nan nan nan nan
nan nan nan nan 314 328 338 325 329 342 349 341 347 350 nan nan nan nan nan nan nan nan nan nan nan nan nan nan nan nan nan nan nan nan nan nan nan nan nan nan nan nan nan nan nan nan nan nan nan
nan nan nan nan 302 332 301 327 345 342 334 347 346 349 355 nan nan nan nan nan nan nan nan nan nan nan nan nan nan nan nan nan nan nan nan nan nan nan nan nan nan nan nan nan nan nan nan nan nan
nan nan nan 253 306 328 305 326 314 338 344 344 351 354 341 nan nan nan nan nan nan nan nan nan nan nan nan nan nan nan nan nan nan nan nan nan nan nan nan nan nan nan nan nan nan nan nan nan nan
nan nan nan 252 243 277 283 297 326 333 338 345 337 341 333 333 nan nan nan nan nan nan nan nan nan nan nan nan nan nan nan nan nan nan nan nan nan nan nan nan nan nan nan nan nan nan nan nan nan
nan nan nan nan 270 292 301 12 319 321 333 344 nan nan 340 nan nan nan nan nan nan nan nan nan nan nan nan nan nan nan nan nan nan nan nan nan nan nan nan nan nan nan nan nan nan nan nan nan nan
nan nan nan nan nan nan nan 300 333 322 343 353 nan nan nan nan nan nan nan nan nan nan nan nan nan nan nan nan nan nan nan nan nan nan nan nan nan nan nan nan nan nan nan nan nan nan nan nan nan
nan nan nan nan nan nan nan nan 336 337 352 346 340 nan nan nan nan nan nan nan nan nan nan nan nan nan nan nan nan nan nan nan nan nan nan nan nan nan nan nan nan nan nan nan nan nan nan nan nan
nan nan nan nan nan nan nan nan nan 345 351 327 325 nan 348 nan nan nan nan nan nan nan nan nan nan nan nan nan nan nan nan nan nan nan nan nan nan nan nan nan nan nan nan nan nan nan nan nan nan
nan nan nan nan nan nan nan nan nan nan 335 nan nan 333 nan nan nan nan nan nan nan nan nan 332 329 nan nan nan nan nan nan nan nan nan nan nan nan nan nan nan nan nan nan nan nan nan nan nan nan
nan nan nan nan nan nan nan nan nan nan 323 333 327 nan nan nan 344 342 331 325 325 331 nan 332 328 nan nan nan nan nan nan nan nan nan nan nan nan nan nan nan nan nan nan nan nan nan nan nan nan
nan nan nan nan nan nan nan nan nan nan 323 323 313 nan nan nan 328 340 331 325 331 nan 328 333 327 nan nan nan nan nan nan nan nan nan nan nan nan nan nan nan nan nan nan nan nan nan nan nan nan
nan nan nan nan nan nan nan nan 281 291 292 290 260 nan nan nan 316 332 nan 332 325 nan 329 330 nan nan nan nan nan nan nan nan nan nan nan nan nan nan nan nan nan nan nan nan nan nan nan nan nan
nan nan nan nan nan nan nan nan 293 291 292 295 293 313 288 272 305 322 nan nan 322 330 329 nan nan nan nan nan nan nan nan nan nan nan nan nan nan nan nan nan nan nan nan nan nan nan nan nan nan
nan nan nan nan nan nan nan nan nan 309 330 341 333 nan nan 269 nan nan 328 334 329 332 333 nan nan nan nan nan nan nan nan nan nan nan nan nan nan nan nan nan nan nan nan nan nan nan nan nan nan
nan nan nan nan nan nan nan nan nan nan 332 342 333 nan nan nan nan 329 339 340 332 337 nan nan nan nan nan nan nan nan nan nan nan nan nan nan nan nan nan nan nan nan nan nan nan nan nan nan nan
nan nan nan nan nan nan nan 266 273 nan 346 nan nan nan nan nan nan nan nan 342 332 334 nan nan nan nan nan nan nan nan nan nan nan nan nan nan nan nan nan nan nan nan nan nan nan nan nan nan nan
nan nan nan nan nan nan nan 276 nan nan nan 326 320 342 344 nan nan nan nan 337 nan nan nan nan nan nan nan nan nan nan nan nan nan nan nan nan nan nan nan nan nan nan nan nan nan nan nan nan nan
nan nan nan nan nan nan nan nan 304 314 nan 322 314 321 329 335 330 327 332 nan nan nan nan nan nan nan nan nan nan nan nan nan nan nan nan nan nan nan nan nan nan nan nan nan nan nan nan nan nan
nan nan nan nan nan nan nan nan 292 315 320 327 336 333 329 329 330 331 nan nan nan nan nan nan nan nan nan nan nan nan nan nan nan nan nan nan nan nan nan nan nan nan nan nan nan nan nan nan nan